This is the latest recevied weather packets stored in our database for station/object N3MFL. If no packets are shown the sender has not sent any weather packets the latest 10 day(s).
| Time | Temp. | Humidity | Pressure | Rain* | Wind** | Luminosity | Snow |
|---|---|---|---|---|---|---|---|
| 1777485736 | 16.11° C | 61% | 1015.4 hPa | 0 mm | - | 223 W/m² | - |
| 1777485432 | 16.11° C | 61% | 1015.4 hPa | 0 mm | - | 402 W/m² | - |
| 1777485128 | 15.56° C | 61% | 1015.2 hPa | 0 mm | - | 335 W/m² | - |
| 1777484820 | 16.11° C | 62% | 1015.5 hPa | 0 mm | - | 274 W/m² | - |
| 1777484516 | 16.11° C | 62% | 1015.5 hPa | 0 mm | - | 405 W/m² | - |
| 1777484214 | 15.56° C | 61% | 1016 hPa | 0 mm | - | 397 W/m² | - |
| 1777483910 | 15.56° C | 62% | 1015.7 hPa | 0 mm | - | 348 W/m² | - |
| 1777483606 | 15.56° C | 64% | 1015.6 hPa | 0 mm | - | 547 W/m² | - |
| 1777483305 | 15.56° C | 63% | 1015.6 hPa | 0 mm | - | 237 W/m² | - |
| 1777483002 | 15° C | 64% | 1015.6 hPa | 0 mm | - | 453 W/m² | - |
| 1777482698 | 15.56° C | 64% | 1015.7 hPa | 0 mm | - | 259 W/m² | - |
| 1777482395 | 15° C | 65% | 1015.9 hPa | 0 mm | - | 482 W/m² | - |
| 1777482093 | 14.44° C | 64% | 1015.9 hPa | 0 mm | - | 312 W/m² | - |
| 1777481791 | 15° C | 64% | 1015.8 hPa | 0 mm | - | 332 W/m² | - |
| 1777481487 | 15° C | 64% | 1015.8 hPa | 0 mm | - | 489 W/m² | - |
| 1777481183 | 15° C | 65% | 1015.8 hPa | 0 mm | - | 367 W/m² | - |
| 1777480880 | 15° C | 65% | 1015.7 hPa | 0 mm | - | 395 W/m² | - |
| 1777480577 | 13.89° C | 68% | 1015.6 hPa | 0 mm | - | 292 W/m² | - |
| 1777480274 | 13.89° C | 68% | 1015.9 hPa | 0 mm | - | 492 W/m² | - |
| 1777479970 | 13.89° C | 68% | 1016 hPa | 0 mm | - | 273 W/m² | - |
| 1777479667 | 14.44° C | 69% | 1016 hPa | 0 mm | - | 555 W/m² | - |
| 1777479365 | 13.33° C | 70% | 1015.9 hPa | 0 mm | - | 466 W/m² | - |
| 1777479061 | 13.33° C | 67% | 1016.2 hPa | 0 mm | - | 826 W/m² | - |
| 1777478757 | 13.33° C | 69% | 1016.2 hPa | 0 mm | - | 752 W/m² | - |
| 1777478454 | 12.78° C | 71% | 1016 hPa | 0 mm | - | 812 W/m² | - |
* Rain latest hour (hover to see other rain measurements)
** Current wind speed in m/s (hover to see current wind gust speed)